| time (UTC) | temp C | wind direction | speed KPH | gust KPH | rain 1hr cm | rain 24hr cm | rain mn cm | humidity % | barometer mb |
| 20260904034540 | 13 | 87 | 1.6 | 4.8 | 0.00 | 0.00 | 0.00 | 48 | 877.3 |
| 20260904033035 | 13 | 312 | 0.0 | 1.6 | 0.00 | 0.00 | 0.00 | 69 | 877.3 |
| 20260904031531 | 13 | 312 | 0.0 | 0.0 | 0.00 | 0.00 | 0.00 | 72 | 877.1 |
| 20260904030026 | 13 | 80 | 0.0 | 3.2 | 0.00 | 0.00 | 0.00 | 73 | 877.1 |
| 20260904024533 | 14 | 114 | 4.8 | 12.9 | 0.00 | 0.00 | 0.00 | 77 | 877.0 |
| 20260904023017 | 14 | 108 | 8.0 | 14.5 | 0.00 | 0.00 | 0.00 | 75 | 876.9 |
| 20260904021518 | 15 | 120 | 8.0 | 16.1 | 0.00 | 0.00 | 0.00 | 73 | 877.0 |
| 20260904020009 | 16 | 150 | 8.0 | 20.9 | 0.00 | 0.00 | 0.00 | 69 | 876.9 |
| 20260904014505 | 16 | 113 | 9.7 | 17.7 | 0.00 | 0.00 | 0.00 | 67 | 877.0 |
| 20260904013121 | 17 | 161 | 12.9 | 22.5 | 0.00 | 0.00 | 0.00 | 64 | 877.0 |
| 20260904011556 | 17 | 148 | 14.5 | 24.1 | 0.00 | 0.00 | 0.00 | 61 | 877.0 |
| 20260904010105 | 18 | 107 | 16.1 | 27.4 | 0.00 | 0.00 | 0.00 | 59 | 877.1 |
| 20260904004547 | 19 | 114 | 14.5 | 27.4 | 0.00 | 0.00 | 0.00 | 56 | 877.1 |
| 20260904003044 | 20 | 172 | 16.1 | 29.0 | 0.00 | 0.00 | 0.00 | 53 | 877.0 |
| 20260904001539 | 20 | 122 | 14.5 | 27.4 | 0.00 | 0.00 | 0.00 | 53 | 877.1 |
| 20260904000033 | 20 | 115 | 16.1 | 27.4 | 0.00 | 0.00 | 0.00 | 52 | 877.1 |
| 20260903234539 | 21 | 150 | 12.9 | 29.0 | 0.00 | 0.00 | 0.00 | 52 | 877.1 |
| 20260903233031 | 21 | 154 | 19.3 | 30.6 | 0.00 | 0.00 | 0.00 | 51 | 877.3 |
| 20260903231519 | 21 | 175 | 17.7 | 29.0 | 0.00 | 0.00 | 0.00 | 51 | 877.4 |
| 20260903230018 | 21 | 145 | 12.9 | 30.6 | 0.00 | 0.00 | 0.00 | 51 | 877.5 |
| 20260903224512 | 22 | 144 | 16.1 | 35.4 | 0.00 | 0.00 | 0.00 | 49 | 877.7 |
| 20260903223006 | 22 | 94 | 19.3 | 33.8 | 0.00 | 0.00 | 0.00 | 47 | 877.9 |
| 20260903221502 | 22 | 158 | 17.7 | 29.0 | 0.00 | 0.00 | 0.00 | 47 | 878.0 |
| 20260903220058 | 22 | 111 | 17.7 | 32.2 | 0.00 | 0.00 | 0.00 | 43 | 877.9 |
| 20260903214554 | 23 | 116 | 12.9 | 22.5 | 0.00 | 0.00 | 0.00 | 33 | 878.1 |
| 20260903213051 | 23 | 140 | 17.7 | 29.0 | 0.00 | 0.00 | 0.00 | 29 | 878.2 |
| 20260903211602 | 23 | 126 | 14.5 | 29.0 | 0.00 | 0.00 | 0.00 | 28 | 878.3 |
| 20260903210041 | 23 | 123 | 16.1 | 29.0 | 0.00 | 0.00 | 0.00 | 27 | 878.3 |
| 20260903204537 | 23 | 121 | 17.7 | 37.0 | 0.00 | 0.00 | 0.00 | 27 | 878.3 |
| 20260903203033 | 23 | 147 | 17.7 | 32.2 | 0.00 | 0.00 | 0.00 | 25 | 878.2 |
| 20260903201528 | 23 | 156 | 12.9 | 33.8 | 0.00 | 0.00 | 0.00 | 25 | 878.5 |
| 20260903200024 | 23 | 163 | 16.1 | 30.6 | 0.00 | 0.00 | 0.00 | 23 | 878.6 |
| 20260903194520 | 22 | 166 | 16.1 | 32.2 | 0.00 | 0.00 | 0.00 | 22 | 878.6 |
| 20260903193015 | 22 | 146 | 16.1 | 40.2 | 0.00 | 0.00 | 0.00 | 22 | 878.7 |
| 20260903191519 | 22 | 154 | 16.1 | 25.7 | 0.00 | 0.00 | 0.00 | 21 | 878.9 |
| 20260903190111 | 22 | 150 | 12.9 | 27.4 | 0.00 | 0.00 | 0.00 | 22 | 879.0 |
| 20260903184502 | 22 | 130 | 17.7 | 29.0 | 0.00 | 0.00 | 0.00 | 21 | 879.1 |
| 20260903183102 | 21 | 73 | 16.1 | 27.4 | 0.00 | 0.00 | 0.00 | 21 | 879.4 |
| 20260903181552 | 21 | 107 | 14.5 | 27.4 | 0.00 | 0.00 | 0.00 | 21 | 879.4 |
| 20260903180050 | 21 | 136 | 16.1 | 25.7 | 0.00 | 0.00 | 0.00 | 22 | 879.4 |
| 20260903174545 | 21 | 155 | 16.1 | 25.7 | 0.00 | 0.00 | 0.00 | 23 | 879.4 |
| 20260903173041 | 20 | 159 | 9.7 | 24.1 | 0.00 | 0.00 | 0.00 | 22 | 879.4 |
| 20260903171538 | 20 | 133 | 11.3 | 20.9 | 0.00 | 0.00 | 0.00 | 23 | 879.3 |
| 20260903170033 | 20 | 176 | 9.7 | 20.9 | 0.00 | 0.00 | 0.00 | 24 | 879.3 |
| 20260903164527 | 20 | 165 | 14.5 | 20.9 | 0.00 | 0.00 | 0.00 | 26 | 879.1 |
| 20260903163023 | 19 | 149 | 12.9 | 22.5 | 0.00 | 0.00 | 0.00 | 27 | 879.1 |
| 20260903161517 | 18 | 119 | 9.7 | 19.3 | 0.00 | 0.00 | 0.00 | 30 | 879.1 |
| 20260903160013 | 18 | 159 | 12.9 | 22.5 | 0.00 | 0.00 | 0.00 | 33 | 879.0 |
| 20260903154509 | 17 | 118 | 11.3 | 24.1 | 0.00 | 0.00 | 0.00 | 35 | 878.9 |
| 20260903153003 | 17 | 135 | 12.9 | 20.9 | 0.00 | 0.00 | 0.00 | 35 | 878.8 |
| 20260903151600 | 17 | 114 | 11.3 | 20.9 | 0.00 | 0.00 | 0.00 | 35 | 878.9 |
| 20260903150055 | 16 | 140 | 11.3 | 17.7 | 0.00 | 0.00 | 0.00 | 35 | 878.9 |
| 20260903144553 | 16 | 140 | 9.7 | 16.1 | 0.00 | 0.00 | 0.00 | 33 | 878.8 |
| 20260903143048 | 15 | 117 | 6.4 | 12.9 | 0.00 | 0.00 | 0.00 | 31 | 878.8 |
| 20260903141543 | 14 | 109 | 6.4 | 12.9 | 0.00 | 0.00 | 0.00 | 29 | 878.6 |
| 20260903140044 | 14 | 118 | 9.7 | 16.1 | 0.00 | 0.00 | 0.00 | 27 | 878.4 |
| 20260903134534 | 13 | 100 | 9.7 | 17.7 | 0.00 | 0.00 | 0.00 | 26 | 878.2 |
| 20260903133029 | 13 | 116 | 9.7 | 14.5 | 0.00 | 0.00 | 0.00 | 30 | 878.1 |
| 20260903131525 | 13 | 117 | 11.3 | 19.3 | 0.00 | 0.00 | 0.00 | 25 | 878.2 |
| 20260903130020 | 13 | 109 | 11.3 | 19.3 | 0.00 | 0.00 | 0.00 | 24 | 878.1 |
| 20260903124526 | 13 | 109 | 9.7 | 19.3 | 0.00 | 0.00 | 0.00 | 26 | 878.0 |
| 20260903123015 | 13 | 147 | 8.0 | 17.7 | 0.00 | 0.00 | 0.00 | 27 | 877.9 |
| 20260903121508 | 13 | 133 | 9.7 | 16.1 | 0.00 | 0.00 | 0.00 | 28 | 877.9 |
| 20260903120003 | 14 | 129 | 8.0 | 20.9 | 0.00 | 0.00 | 0.00 | 26 | 877.9 |
| 20260903114559 | 13 | 117 | 14.5 | 20.9 | 0.00 | 0.00 | 0.00 | 22 | 877.9 |
| 20260903113054 | 13 | 113 | 6.4 | 16.1 | 0.00 | 0.00 | 0.00 | 24 | 878.1 |
| 20260903111549 | 14 | 117 | 6.4 | 22.5 | 0.00 | 0.00 | 0.00 | 22 | 878.2 |
| 20260903110046 | 14 | 108 | 6.4 | 14.5 | 0.00 | 0.00 | 0.00 | 20 | 878.2 |
| 20260903104542 | 14 | 119 | 4.8 | 16.1 | 0.00 | 0.00 | 0.00 | 21 | 878.3 |
| 20260903103038 | 14 | 132 | 6.4 | 22.5 | 0.00 | 0.00 | 0.00 | 18 | 878.3 |
| 20260903101531 | 14 | 119 | 4.8 | 16.1 | 0.00 | 0.00 | 0.00 | 16 | 878.5 |
| 20260903100029 | 15 | 111 | 11.3 | 16.1 | 0.00 | 0.00 | 0.00 | 13 | 878.5 |
| 20260903094532 | 15 | 121 | 9.7 | 20.9 | 0.00 | 0.00 | 0.00 | 12 | 878.5 |
| 20260903093020 | 15 | 114 | 11.3 | 19.3 | 0.00 | 0.00 | 0.00 | 10 | 878.6 |
| 20260903091514 | 15 | 82 | 14.5 | 20.9 | 0.00 | 0.00 | 0.00 | 10 | 878.7 |
| 20260903090016 | 15 | 108 | 12.9 | 27.4 | 0.00 | 0.00 | 0.00 | 8 | 878.8 |
| 20260903084506 | 15 | 106 | 12.9 | 27.4 | 0.00 | 0.00 | 0.00 | 7 | 878.9 |
| 20260903083001 | 15 | 102 | 12.9 | 20.9 | 0.00 | 0.00 | 0.00 | 8 | 879.2 |
| 20260903081613 | 15 | 117 | 9.7 | 19.3 | 0.00 | 0.00 | 0.00 | 8 | 879.3 |
| 20260903080052 | 15 | 111 | 9.7 | 22.5 | 0.00 | 0.00 | 0.00 | 7 | 879.4 |
| 20260903074555 | 14 | 95 | 8.0 | 16.1 | 0.00 | 0.00 | 0.00 | 9 | 879.5 |
| 20260903073055 | 14 | 93 | 4.8 | 12.9 | 0.00 | 0.00 | 0.00 | 18 | 879.5 |
| 20260903071558 | 14 | 98 | 4.8 | 12.9 | 0.00 | 0.00 | 0.00 | 17 | 879.4 |
| 20260903070041 | 15 | 120 | 3.2 | 14.5 | 0.00 | 0.00 | 0.00 | 13 | 879.4 |
| 20260903064540 | 16 | 117 | 4.8 | 17.7 | 0.00 | 0.00 | 0.00 | 11 | 879.3 |
| 20260903063046 | 16 | 85 | 11.3 | 19.3 | 0.00 | 0.00 | 0.00 | 10 | 879.2 |
| 20260903061540 | 16 | 113 | 12.9 | 24.1 | 0.00 | 0.00 | 0.00 | 12 | 879.1 |
| 20260903060108 | 16 | 115 | 11.3 | 24.1 | 0.00 | 0.00 | 0.00 | 11 | 879.1 |
| 20260903054537 | 16 | 115 | 14.5 | 22.5 | 0.00 | 0.00 | 0.00 | 12 | 879.2 |
| 20260903053035 | 16 | 111 | 14.5 | 24.1 | 0.00 | 0.00 | 0.00 | 10 | 879.4 |
| 20260903051535 | 16 | 102 | 11.3 | 25.7 | 0.00 | 0.00 | 0.00 | 11 | 879.4 |
| 20260903050034 | 16 | 105 | 11.3 | 22.5 | 0.00 | 0.00 | 0.00 | 11 | 879.6 |
| 20260903044536 | 16 | 107 | 11.3 | 24.1 | 0.00 | 0.00 | 0.00 | 11 | 879.7 |
| 20260903043032 | 17 | 98 | 9.7 | 16.1 | 0.00 | 0.00 | 0.00 | 11 | 879.6 |
| 20260903041532 | 17 | 92 | 11.3 | 22.5 | 0.00 | 0.00 | 0.00 | 10 | 879.6 |
| 20260903040049 | 17 | 111 | 11.3 | 24.1 | 0.00 | 0.00 | 0.00 | 11 | 879.6 |